Weather History for Wilmington, NC

Change the Weather History Date:

Thursday, December 19, 2013

  Actual Average Record
Temperature  
Mean Temperature 47 °F 48 °F  
Max Temperature 63 °F 58 °F 81 °F (1967)
Min Temperature 30 °F 37 °F 19 °F (1950)
Degree Days  
Heating Degree Days 18 17  
Month to date heating degree days 251 291  
Since 1 July heating degree days 653 660  
Cooling Degree Days 0 0  
Month to date cooling degree days 9 0  
Year to date cooling degree days 1901 2037  
Moisture  
Dew Point 31 °F    
Average Humidity 55    
Maximum Humidity 85    
Minimum Humidity 25    
Precipitation  
Precipitation 0.00 in 0.12 in 1.20 in (1936)
Month to date precipitation 1.20 2.22  
Year to date precipitation 50.61 56.21  
Snow  
Snow 0.00 in 0.00 in T in (2004)
Month to date snowfall 0.0 0.4  
Since 1 July snowfall T 0.4  
Snow Depth 0.00 in    
Sea Level Pressure  
Sea Level Pressure 30.33 in    
Wind  
Wind Speed 2 mph (SSW)    
Max Wind Speed 10 mph    
Max Gust Speed 14 mph    
Visibility 10 miles    
Events      
T = Trace of Precipitation, MM = Missing Value Source: NWS Daily Summary

Daily Weather History Graph

Daily Weather History Graph

Search for Another Location

Airport:

Trip Planner

Search our weather history database for the weather conditions in past years. The results will help you decide how hot, cold, wet, or windy it might be!

Date:

Astronomy

Dec. 19, 2013 Rise Set
Actual Time 7:12 AM EST 5:04 PM EST
Civil Twilight 6:44 AM EST 5:32 PM EST
Nautical Twilight 6:13 AM EST 6:04 PM EST
Astronomical Twilight 5:42 AM EST 6:34 PM EST
Moon 7:23 PM EST (12/19) 8:35 AM EST (12/19)
Length of Visible Light 10h 47m
Length of Day
9h 52m
Waning Gibbous, 95% of the Moon is Illuminated
Dec 19
Waning Gibbous
Dec 25
Last Quarter
Jan 1
New
Jan 7
First Quarter
Jan 15
Full

Hourly Weather History & Observations

Time (EST) Temp. Dew Point Humidity Pressure Visibility Wind Dir Wind Speed Gust Speed Precip Events Conditions
12:53 AM 33.1 °F 28.0 °F 82% 30.32 in 8.0 mi Calm Calm - N/A   Clear
1:53 AM 32.0 °F 27.0 °F 82% 30.32 in 10.0 mi Calm Calm - N/A   Clear
2:53 AM 32.0 °F 28.0 °F 85% 30.34 in 10.0 mi Calm Calm - N/A   Clear
3:53 AM 30.0 °F 27.0 °F 88% 30.34 in 10.0 mi Calm Calm - N/A   Clear
4:53 AM 30.9 °F 27.0 °F 85% 30.34 in 9.0 mi Calm Calm - N/A   Clear
5:53 AM 30.9 °F 26.1 °F 82% 30.35 in 10.0 mi Calm Calm - N/A   Clear
6:53 AM 32.0 °F 27.0 °F 82% 30.36 in 10.0 mi Calm Calm - N/A   Clear
7:53 AM 32.0 °F 28.0 °F 85% 30.36 in 10.0 mi Calm Calm - N/A   Clear
8:53 AM 43.0 °F 36.0 °F 76% 30.37 in 10.0 mi Calm Calm - N/A   Clear
9:53 AM 54.0 °F 30.9 °F 41% 30.38 in 10.0 mi SW 3.5 mph - N/A   Clear
10:53 AM 57.9 °F 25.0 °F 28% 30.37 in 10.0 mi SSW 5.8 mph - N/A   Clear
11:53 AM 59.0 °F 24.1 °F 26% 30.35 in 10.0 mi SSW 6.9 mph - N/A   Clear
12:53 PM 62.1 °F 26.1 °F 25% 30.32 in 10.0 mi WSW 8.1 mph - N/A   Clear
1:53 PM 63.0 °F 28.0 °F 27% 30.30 in 10.0 mi SW 9.2 mph - N/A   Clear
2:53 PM 63.0 °F 28.9 °F 28% 30.28 in 10.0 mi SW 6.9 mph - N/A   Clear
3:53 PM 62.1 °F 33.1 °F 34% 30.29 in 10.0 mi SSW 8.1 mph - N/A   Clear
4:53 PM 55.9 °F 35.1 °F 45% 30.30 in 10.0 mi SSW 4.6 mph - N/A   Clear
5:53 PM 53.1 °F 37.0 °F 55% 30.30 in 10.0 mi South 3.5 mph - N/A   Clear
6:53 PM 48.0 °F 37.0 °F 66% 30.31 in 10.0 mi Calm Calm - N/A   Clear
7:53 PM 45.0 °F 37.0 °F 74% 30.31 in 10.0 mi Calm Calm - N/A   Clear
8:53 PM 44.1 °F 37.0 °F 76% 30.32 in 10.0 mi Calm Calm - N/A   Clear
9:53 PM 42.1 °F 37.0 °F 82% 30.31 in 10.0 mi Calm Calm - N/A   Clear
10:53 PM 42.1 °F 36.0 °F 79% 30.30 in 10.0 mi Calm Calm - N/A   Clear
11:53 PM 42.1 °F 37.0 °F 82% 30.29 in 9.0 mi Calm Calm - N/A   Clear